Regional Weather Roundup
Issued by NWS

Home | Current Version | Previous Version | Text Only | Print | Product List | Glossary Off
Versions: 1 2 3 4 5 6 7 8 9 10 11 12 13 14 15 16 17 18 19 20 21 22 23 24 25 26 27 28 29 30 31 32 33 34 35 36 37 38 39 40 41 42 43 44 45 46 47 48 49 50

000
ASUS45 KTFX 191819
RWRMT
MONTANA HOURLY WEATHER ROUNDUP
NATIONAL WEATHER SERVICE GREAT FALLS MT
1219 PM MDT FRI SEP 19 2014

NOTE: "FAIR" INDICATES FEW OR NO CLOUDS BELOW 12000 FEET WITH NO
SIGNIFICANT WEATHER AND/OR OBSTRUCTIONS TO VISIBILITY.

* THESE STATIONS ARE NOT UNDER NWS QUALITY CONTROL. THEY DO NOT
   REPORT WEATHER SUCH AS PRECIPITATION OR FOG.

MTZ001>007-043-191900-
WEST OF THE DIVIDE
CITY           SKY/WX    TMP DP  RH WIND       PRES   REMARKS
KALISPELL      PTSUNNY   70  46  42 SW14      29.98S
MISSOULA       CLOUDY    72  45  38 W8        30.05S
BUTTE          CLOUDY    63  37  38 NW14      30.12R
MULLAN PASS    CLOUDY    46  43  89 VRB5      30.16R
* ESSEX        N/A       57  52  83 SW1        N/A
* LINCOLN      N/A       64  44  48 W7G14      N/A
* LOOKOUT PASS N/A       54  45  72 E6G12      N/A
* POLSON       N/A       67  48  51 SE3G9      N/A
* RONAN APT    PTCLDY    66  46  49 SW7        N/A
* SEELEY LAKE  N/A       62  45  54 W4G10      N/A
* THOMP F APT  SUNNY     62  50  65 S5G10      N/A
$$

MTZ008-052>055-191900-
SOUTHWEST MONTANA
CITY           SKY/WX    TMP DP  RH WIND       PRES   REMARKS
BOZEMAN        PTCLDY    70  45  41 NW17G23   30.04S
DILLON         PTCLDY    68  43  40 SW15      30.09R
W YELLOWSTONE  PTCLDY    63  48  58 SW12      30.15R
* THREE FORKS  PTCLDY    72  72 100 W18        N/A
* BOULDER HILL N/A       59  40  50 S8         N/A
* MONIDA PASS  N/A       59  41  51 W6         N/A
* RAYNOLDS PAS N/A       61  48  62 SW11G17    N/A
* WHITEHALL    N/A       71  45  39 NW11G17    N/A
* WISE RIVER   N/A       62  39  43 W14G21     N/A
$$

MTZ009>010-012-014-046-048-049-054-191900-
EAST SLOPES AND CENTRAL MONTANA
CITY           SKY/WX    TMP DP  RH WIND       PRES   REMARKS
CUT BANK       SUNNY     72  45  38 W24G37    29.88R
GREAT FALLS    PTSUNNY   72  45  38 W20G28    29.91S
HELENA         PTSUNNY   72  45  38 SW12G24   29.99F
MALMSTROM AFB  PTSUNNY   70  45  41 W15G24    29.92S
* CONRAD       PTCLDY    72  50  46 SW17G26    N/A
* EAST GLACIER N/A       60  43  54 W23G35     N/A
* MONARCH      N/A       60  41  50 W15G22     N/A
* PENDROY      N/A       69  48  47 NW17G26    N/A
* ROGERS PASS  N/A       58  42  55 E10G28     N/A
* SAINT MARY   N/A       62  46  56 SW12G26    N/A
* SWEET GRASS  N/A       69  41  36 W16G23     N/A
* WHITE SULPH  N/A       66  44  45 W12G21     N/A
$$

MTZ011-013-016-021-035-040-045-047-050-051-191900-
NORTH CENTRAL MONTANA
CITY           SKY/WX    TMP DP  RH WIND       PRES   REMARKS
HAVRE          PTCLDY    73  45  37 NW22G31   29.80R
LEWISTOWN      CLOUDY    70  45  41 NW23G33   29.93R
* CHINOOK      PTCLDY    73  48  41 W16G22    29.79R
* CHESTER      N/A       69  43  39 NW13G23    N/A
* DENTON       N/A       69  45  42 W29G37     N/A
* GEYSER       N/A       67  47  49 W19G29     N/A
* JUDITH GAP   N/A       66  48  52 W16G21     N/A
* LOMA         N/A       72  46  40 W16G24     N/A
$$

MTZ017>020-022>027-061-062-191900-
NORTHEAST MONTANA
CITY           SKY/WX    TMP DP  RH WIND       PRES   REMARKS
GLASGOW        PTCLDY    73  48  41 NW16      29.75R
GLENDIVE       PTCLDY    73  48  41 W17G26    29.78R
JORDAN         PTSUNNY   73  48  41 W17G24    29.81R
SIDNEY         PTCLDY    79  48  34 W18G29    29.71R
WOLF POINT     PTCLDY    75  52  45 W20G26    29.72R
* BEAVER HILL  N/A       73  49  43 SW17G24    N/A
* CIRCLE       N/A       73  50  44 W9G21      N/A
* LINDSAY DVD  N/A       71  48  44 W17G26     N/A
* NAVAJO       N/A       68  52  57 NW14G22    N/A
$$

MTZ028>042-056>058-191900-
SOUTHCENTRAL AND SOUTHEAST MONTANA
CITY           SKY/WX    TMP DP  RH WIND       PRES   REMARKS
BAKER          SUNNY     75  46  36 NW21G30   29.81S
BILLINGS       PTCLDY    75  45  34 W21       29.92R
LIVINGSTON     PTCLDY    73  43  34 W25G35    30.00R
MILES CITY     PTCLDY    77  48  36 W20G26    29.82R
* LAUREL APT   PTCLDY    73  45  37 W14G22     N/A
* ROUNDUP APT  CLOUDY    70  45  41 W14        N/A
* ALZADA       N/A       76  49  39 W9         N/A
* HYSHAM       N/A       74  44  34 W18G24     N/A
* LAME DEER    N/A       69  47  46 W13G20     N/A
* REED POINT   N/A       74  44  34 W19G26     N/A
* ROSCOE HILL  N/A       72  31  22 W2G11      N/A
$$

REGIONAL REPORTS...DAKOTAS
CITY           SKY/WX    TMP DP  RH WIND       PRES   REMARKS
WILLISTON      SUNNY     79  48  34 W21G32    29.64R
DICKINSON      SUNNY     77  48  36 W17G26    29.72R
BEACH          N/A       73  48  41 W21G31    29.77S
CROSBY         SUNNY     72  50  46 NW18G26   29.63R
TIOGA          SUNNY     75  48  39 W22G32    29.65S
WATFORD CITY   HAZE      79  46  31 W26G40    29.64S
BISMARCK       SUNNY     82  55  40 W7        29.65R HI  81
GRAND FORKS    CLOUDY    68  64  87 S14       29.53F
FARGO          LGT RAIN  70  63  79 S14       29.61R
BUFFALO SD     SUNNY     79  48  34 NW17G25   29.75S
RAPID CITY     PTSUNNY   81  50  34 N12G21    29.83F
$$

REGIONAL REPORTS...WYOMING/IDAHO/WASHINGTON
CITY           SKY/WX    TMP DP  RH WIND       PRES   REMARKS
GILLETTE       PTCLDY    75  48  39 N13       29.93R
SHERIDAN       SUNNY     75  52  45 N6        29.93R
CODY           SUNNY    N/A N/A N/A N/A        N/A
YELLOWSTONE LA SUNNY     55  43  64 CALM      30.22S
SALMON         PTCLDY    64  46  52 CALM      30.07F
MULLAN PASS    CLOUDY    46  43  89 VRB5      30.16S
SAND POINT     CLOUDY    64  50  61 SW3       30.05R
SPOKANE        SUNNY     66  48  52 S9        30.06R
$$

REGIONAL REPORTS...ALBERTA
CITY           SKY/WX    TMP DP  RH WIND       PRES   REMARKS
CALGARY        PTCLDY    68  45  44 VRB6      29.80R
LETHBRIDGE     SUNNY     72  43  35 W21G33    29.81S
MEDICINE HAT   SUNNY     70  52  53 W8        29.78S
EDMONTON       PTSUNNY   64  52  65 W6        29.72R
WATERTON GATE  N/A       64  41  43 SW23G36    N/A
CARDSTON       N/A       66  45  47 W16G25     N/A
MILK RIVER     N/A       72  43  35 W16G23     N/A
$$

REGIONAL REPORTS...SASKATCHEWAN
CITY           SKY/WX    TMP DP  RH WIND       PRES   REMARKS
SWIFT CURRENT  PTCLDY    64  52  65 W13       29.73R
MOOSE JAW      PTSUNNY   63  55  75 NW7       29.69R
REGINA         PTSUNNY   64  55  73 NW12      29.67R
VAL MARIE      N/A       66  52  61 N5         N/A
ASSINIBOIA     N/A       61  54  78 W10        N/A
CORONACH       N/A       59  54  84 W18G26     N/A

$$



USA.gov is the U.S. government's official web portal to all federal, state and local government web resources and services.